[[{"header":{"parameterUnit":"m.s-1","parameterCategory":1,"la1":30.2991,"la2":30.254,"lo1":-89.0895,"lo2":-89.0444,"dy":0.0017,"dx":0.0017,"nx":28,"ny":28,"refTime":"2025-02-07T09:00:00:Z","depth":0,"parameterNumber":2,"parameterNumberName":"U-component_of_WINDS"},"data":[0,0,0,0,0,0,0,0,0,0,0,0,0,0,0,0,0,0,0,0,0,0,0,0,0,0,0,0,0,0,0,0,0,0,0,0,0,0,0,0,0,0,0,0,0,0,0,0,0,0,0,0,0,0,0,0,0,0,-0.7094,-0.7094,0,-0.7082,-0.7082,-0.7082,-0.7073,-0.7073,-0.7073,-0.7073,-0.706,-0.7059,-0.7059,0,0,0,0,0,0,0,0,0,0,0,0,0,-0.7109,-0.7109,-0.7094,-0.7094,-0.7094,-0.7082,-0.7082,-0.7082,-0.7073,-0.7073,-0.7073,-0.7073,-0.706,-0.7059,-0.7059,0,0,0,0,0,0,0,0,0,0,0,0,0,-0.71,-0.7109,-0.7094,-0.7088,-0.7088,-0.7082,-0.7082,-0.7082,-0.7073,-0.7073,-0.7073,-0.7073,-0.706,-0.706,-0.7059,-0.7058,0,0,-0.7058,-0.7058,0,0,0,0,0,0,0,0,-0.7101,-0.71,-0.7089,-0.7089,-0.7088,-0.7079,-0.7082,-0.7074,-0.7073,-0.7079,-0.7073,-0.7073,-0.7066,-0.7065,-0.7063,-0.7058,-0.7057,-0.7058,-0.7057,-0.7057,-0.7057,0,0,0,0,0,0,0,-0.7101,-0.71,-0.7089,-0.7089,-0.7088,-0.7086,-0.7085,-0.7081,-0.7073,-0.7078,-0.7078,-0.7076,-0.7066,-0.7064,-0.7063,-0.7057,-0.7058,-0.7057,-0.7057,-0.7057,-0.7051,-0.7051,0,0,0,0,0,0,-0.7103,-0.7101,-0.709,-0.7089,-0.7094,-0.7086,-0.7084,-0.7082,-0.7073,-0.7072,-0.7077,-0.7076,-0.7064,-0.7063,-0.7062,-0.7061,-0.7057,-0.7057,-0.7057,-0.705,-0.7051,-0.7051,0,0,0,0,0,0,-0.7103,-0.7102,-0.709,-0.7095,-0.7093,-0.7086,-0.7083,-0.7082,-0.708,-0.7072,-0.707,-0.7076,-0.7064,-0.7063,-0.706,-0.706,-0.7057,-0.7056,-0.705,-0.7051,-0.7051,-0.7058,0,0,0,0,0,0,-0.7104,-0.7102,-0.7102,-0.7095,-0.7093,-0.7088,-0.7083,-0.7082,-0.7079,-0.7078,-0.7071,-0.7069,-0.7064,-0.706,-0.7059,-0.706,-0.7056,-0.705,-0.705,-0.7051,-0.7058,-0.7059,-0.7059,0,0,0,0,0,-0.7104,-0.7104,-0.7102,-0.7101,-0.7092,-0.7088,-0.7087,-0.7081,-0.7079,-0.7079,-0.7074,-0.707,-0.7061,-0.706,-0.7059,-0.7059,-0.705,-0.705,-0.7051,-0.7057,-0.7058,-0.7059,0,0,0,0,0,0,-0.7111,-0.7103,-0.7101,-0.7098,-0.7094,-0.7087,-0.7086,-0.7082,-0.7078,-0.7078,-0.707,-0.7069,-0.7066,-0.7062,-0.7062,-0.7058,-0.7055,-0.7055,-0.7061,-0.7061,-0.7062,-0.7063,-0.7055,0,0,0,0,0,-0.7113,-0.711,-0.7103,-0.7101,-0.71,-0.7093,-0.7091,-0.7087,-0.7082,-0.708,-0.7075,-0.707,-0.7066,-0.7064,-0.706,-0.7057,-0.7056,-0.7057,-0.7058,-0.7058,-0.7058,-0.7057,-0.7058,-0.7051,-0.7051,-0.7051,0,0,-0.7115,-0.711,-0.7109,-0.7103,-0.7099,-0.7096,-0.7092,-0.7089,-0.7086,-0.708,-0.7076,-0.7072,-0.7066,-0.7064,-0.7062,-0.706,-0.706,-0.7059,-0.7059,-0.7059,-0.7057,-0.7058,-0.7058,-0.7052,-0.7052,-0.7052,0,0,-0.7118,-0.7115,-0.7113,-0.7109,-0.7104,-0.71,-0.71,-0.7093,-0.709,-0.7087,-0.7082,-0.7079,-0.7072,-0.7068,-0.7065,-0.7068,-0.7064,-0.7067,-0.707,-0.7069,-0.707,-0.707,-0.7071,-0.7071,-0.7067,-0.7067,-0.7067,0,-0.7122,-0.7118,-0.7113,-0.711,-0.7108,-0.7102,-0.71,-0.7097,-0.709,-0.7089,-0.7087,-0.7079,-0.7074,-0.7071,-0.7072,-0.7069,-0.7069,-0.7067,-0.707,-0.707,-0.7071,-0.7071,-0.7072,-0.7067,-0.7067,-0.7067,-0.7067,0,-0.7123,-0.712,-0.7119,-0.7113,-0.7111,-0.7109,-0.7103,-0.7101,-0.7098,-0.7094,-0.7091,-0.7085,-0.708,-0.7079,-0.7076,-0.7075,-0.7074,-0.7071,-0.7068,-0.7072,-0.7072,-0.7072,-0.7068,-0.7068,-0.7068,-0.7067,0,0,-0.7129,-0.7121,-0.7121,-0.7118,-0.7112,-0.711,-0.7108,-0.7103,-0.7101,-0.7097,-0.7095,-0.709,-0.7088,-0.7084,-0.7081,-0.708,-0.7082,-0.7077,-0.7077,-0.7078,-0.7081,-0.7083,-0.7083,-0.7079,-0.708,-0.708,-0.7082,0,-0.7131,-0.7127,-0.7122,-0.712,-0.7117,-0.7112,-0.711,-0.7106,-0.7103,-0.71,-0.7096,-0.7092,-0.7089,-0.7088,-0.7087,-0.7082,-0.7082,-0.7082,-0.7077,-0.7077,-0.7078,-0.7084,-0.7086,-0.7088,-0.7082,-0.7082,-0.7082,0,-0.7132,-0.7129,-0.7126,-0.7121,-0.712,-0.7118,-0.7114,-0.7111,-0.7107,-0.7104,-0.7101,-0.7097,-0.7094,-0.7092,-0.7088,-0.7088,-0.7086,-0.7083,-0.7083,-0.7082,-0.7079,-0.7082,-0.7088,-0.7088,-0.7082,-0.7082,-0.7082,0,-0.7137,-0.7132,-0.713,-0.7128,-0.7121,-0.712,-0.7118,-0.7113,-0.7111,-0.7107,-0.7105,-0.7101,-0.7099,-0.7096,-0.7091,-0.7089,-0.7088,-0.7085,-0.7085,-0.7085,-0.7084,-0.7084,-0.709,-0.7084,-0.7084,-0.7084,-0.7084,0,-0.714,-0.7138,-0.7132,-0.713,-0.7129,-0.7124,-0.7122,-0.7119,-0.7115,-0.7113,-0.7108,-0.7106,-0.71,-0.7097,-0.7093,-0.7091,-0.709,-0.7087,-0.7086,-0.7087,-0.7088,-0.7086,-0.7085,-0.7084,-0.7084,-0.7084,-0.7084,0,-0.7144,-0.714,-0.7137,-0.7132,-0.713,-0.7129,-0.7124,-0.7123,-0.7119,-0.7117,-0.7116,-0.711,-0.7107,-0.7101,-0.7096,-0.7094,-0.7092,-0.709,-0.7093,-0.7093,-0.7093,-0.7093,-0.7097,-0.7097,-0.7092,-0.7092,-0.7092,0,-0.7146,-0.7145,-0.7139,-0.7138,-0.7135,-0.7133,-0.713,-0.7126,-0.7124,-0.7119,-0.7118,-0.7114,-0.7111,-0.7105,-0.7101,-0.7097,-0.7095,-0.7097,-0.7094,-0.7096,-0.7095,-0.7095,-0.7094,-0.7097,-0.7097,-0.7097,-0.7097,0,-0.7149,-0.7148,-0.7145,-0.7141,-0.7139,-0.7136,-0.7133,-0.7131,-0.7126,-0.7124,-0.7121,-0.7118,-0.7113,-0.711,-0.7105,-0.7102,-0.7099,-0.7098,-0.7098,-0.7099,-0.7101,-0.71,-0.7094,-0.7098,-0.7098,-0.7098,-0.7098,-0.7098,-0.7153,-0.7151,-0.7147,-0.7144,-0.7142,-0.7139,-0.7137,-0.7134,-0.7131,-0.7127,-0.7124,-0.7121,-0.7117,-0.7111,-0.7108,-0.7105,-0.7104,-0.7103,-0.7103,-0.7103,-0.7104,-0.7102,-0.7104,-0.7104,-0.7104,-0.7104,-0.7104,0,-0.7155,-0.7153,-0.715,-0.7146,-0.7144,-0.7141,-0.7138,-0.7136,-0.7133,-0.713,-0.7127,-0.7123,-0.712,-0.7115,-0.7111,-0.711,-0.7108,-0.7109,-0.7109,-0.7108,-0.7105,-0.7106,-0.7111,-0.7111,-0.7111,-0.7111,-0.7111,-0.7111,-0.7157,-0.7155,-0.7152,-0.7149,-0.7146,-0.7143,-0.7141,-0.7139,-0.7136,-0.7132,-0.7129,-0.7126,-0.7122,-0.7119,-0.7115,-0.7114,-0.7113,-0.7114,-0.7112,-0.7109,-0.7109,-0.7108,-0.7108,-0.7114,-0.7114,-0.7115,-0.7115,-0.7115]},{"header":{"parameterUnit":"m.s-1","parameterCategory":1,"la1":30.2991,"la2":30.254,"lo1":-89.0895,"lo2":-89.0444,"dy":0.0017,"dx":0.0017,"nx":28,"ny":28,"refTime":"2025-02-07T09:00:00:Z","depth":0,"parameterNumber":3,"parameterNumberName":"V-component_of_WINDS"},"data":[0,0,0,0,0,0,0,0,0,0,0,0,0,0,0,0,0,0,0,0,0,0,0,0,0,0,0,0,0,0,0,0,0,0,0,0,0,0,0,0,0,0,0,0,0,0,0,0,0,0,0,0,0,0,0,0,0,0,1.8867,1.8867,0,1.8925,1.8926,1.8927,1.8932,1.8932,1.8931,1.8931,1.8991,1.8993,1.8995,0,0,0,0,0,0,0,0,0,0,0,0,0,1.876,1.8762,1.8867,1.8867,1.8868,1.8925,1.8926,1.8927,1.8932,1.8932,1.8931,1.893,1.899,1.8993,1.8995,0,0,0,0,0,0,0,0,0,0,0,0,0,1.8811,1.8763,1.8867,1.8878,1.888,1.8925,1.8926,1.8927,1.8933,1.8932,1.8931,1.893,1.8989,1.8992,1.8996,1.9034,0,0,1.9006,1.9007,0,0,0,0,0,0,0,0,1.8808,1.8815,1.8876,1.8877,1.8879,1.8921,1.891,1.8963,1.8933,1.8912,1.8931,1.893,1.8968,1.8973,1.8986,1.9037,1.9039,1.9006,1.9008,1.9009,1.901,0,0,0,0,0,0,0,1.8805,1.8813,1.889,1.8876,1.8879,1.888,1.8886,1.892,1.8945,1.8914,1.8915,1.8922,1.8969,1.8983,1.8988,1.904,1.9006,1.9009,1.9011,1.9012,1.9126,1.9127,0,0,0,0,0,0,1.8799,1.881,1.8888,1.8892,1.8841,1.8883,1.889,1.8908,1.8944,1.8949,1.8922,1.8922,1.8978,1.8984,1.899,1.9038,1.9009,1.9012,1.9014,1.9125,1.9126,1.9127,0,0,0,0,0,0,1.8797,1.8806,1.8886,1.8851,1.8861,1.8886,1.8906,1.891,1.8924,1.8951,1.8955,1.8932,1.8977,1.8985,1.9023,1.904,1.9014,1.9017,1.9123,1.9125,1.9126,1.9133,0,0,0,0,0,0,1.8794,1.8805,1.882,1.8851,1.8863,1.8918,1.8907,1.8912,1.8929,1.8929,1.8961,1.8965,1.8977,1.9018,1.9026,1.9044,1.9019,1.9122,1.9124,1.9126,1.9132,1.9135,1.9137,0,0,0,0,0,1.879,1.882,1.8821,1.883,1.8882,1.8919,1.8926,1.8939,1.8931,1.8946,1.8963,1.8964,1.9036,1.9022,1.9031,1.905,1.9121,1.9123,1.9126,1.913,1.9134,1.9137,0,0,0,0,0,0,1.879,1.8824,1.8826,1.8866,1.889,1.892,1.8939,1.8942,1.8969,1.8967,1.8982,1.899,1.9027,1.9042,1.9025,1.9089,1.9078,1.9082,1.9078,1.9082,1.9085,1.9081,1.9022,0,0,0,0,0,1.8795,1.8822,1.885,1.8883,1.8895,1.8915,1.8931,1.8939,1.8964,1.8974,1.8994,1.9019,1.9047,1.9065,1.9092,1.9133,1.9141,1.9151,1.9154,1.9156,1.916,1.9183,1.9188,1.9135,1.9135,1.9135,0,0,1.8805,1.8827,1.8843,1.8884,1.8903,1.8931,1.8923,1.8953,1.8974,1.8979,1.9016,1.9031,1.9059,1.9099,1.9118,1.9113,1.9176,1.9159,1.9161,1.9163,1.9186,1.9191,1.9196,1.9137,1.9136,1.9136,0,0,1.8838,1.8857,1.8887,1.8906,1.8935,1.8948,1.8955,1.8985,1.8995,1.9033,1.9037,1.9062,1.911,1.913,1.9146,1.9186,1.9189,1.9195,1.9211,1.9233,1.9237,1.9241,1.9256,1.9261,1.9198,1.9198,1.9198,0,1.8847,1.8889,1.8902,1.8932,1.8949,1.8955,1.8985,1.9003,1.904,1.9052,1.9046,1.9106,1.9125,1.917,1.918,1.9193,1.9202,1.9192,1.9236,1.924,1.9243,1.9258,1.9263,1.9199,1.9199,1.9199,1.9199,0,1.8899,1.8928,1.8949,1.8984,1.9004,1.9034,1.9051,1.907,1.9076,1.909,1.9128,1.9151,1.9183,1.9194,1.92,1.924,1.9236,1.9232,1.9222,1.9249,1.9263,1.9268,1.92,1.9199,1.9199,1.9199,0,0,1.8935,1.8976,1.8984,1.9,1.9032,1.9054,1.9084,1.9116,1.9132,1.9156,1.9183,1.9223,1.922,1.9238,1.9247,1.9266,1.9297,1.926,1.9261,1.9267,1.9343,1.9346,1.9352,1.9298,1.9299,1.93,1.9341,0,1.8972,1.9026,1.9038,1.9085,1.9112,1.9117,1.9143,1.9166,1.9179,1.9205,1.9219,1.9248,1.9241,1.9253,1.9272,1.9289,1.9313,1.9286,1.9323,1.9325,1.9317,1.9359,1.9363,1.94,1.9346,1.9347,1.9348,0,1.9023,1.9049,1.9099,1.9127,1.9139,1.9162,1.9192,1.9216,1.9241,1.925,1.927,1.9276,1.9308,1.9295,1.9339,1.9321,1.9336,1.9347,1.9349,1.9353,1.9339,1.9366,1.9412,1.9418,1.9356,1.9356,1.9355,0,1.9046,1.9093,1.9128,1.9142,1.9176,1.9192,1.9207,1.9231,1.9249,1.9275,1.9287,1.9316,1.9333,1.9355,1.9369,1.9358,1.9412,1.94,1.9421,1.942,1.9433,1.9432,1.9483,1.9441,1.9441,1.9441,1.9441,0,1.9087,1.9117,1.9139,1.9161,1.9195,1.9208,1.9241,1.9256,1.9278,1.9303,1.9309,1.9332,1.9348,1.9374,1.9385,1.942,1.9427,1.9435,1.9438,1.9436,1.9435,1.9447,1.9445,1.9442,1.9442,1.9442,1.9441,0,1.9118,1.9134,1.9173,1.9202,1.921,1.9234,1.9258,1.928,1.9293,1.9325,1.9333,1.9354,1.9384,1.94,1.9438,1.9445,1.9485,1.9486,1.9477,1.9478,1.9498,1.9497,1.956,1.9569,1.952,1.952,1.9521,0,1.9144,1.9168,1.9199,1.9216,1.9231,1.9258,1.9277,1.929,1.9309,1.934,1.9358,1.9389,1.9414,1.9463,1.9482,1.9511,1.9513,1.9533,1.9517,1.9514,1.9514,1.9513,1.9516,1.9536,1.9536,1.9537,1.9537,0,1.9189,1.9196,1.9222,1.9251,1.9273,1.9296,1.9319,1.9333,1.935,1.9371,1.9402,1.9422,1.9461,1.9492,1.9522,1.9537,1.9541,1.9542,1.9548,1.9546,1.9541,1.9545,1.9486,1.954,1.954,1.954,1.954,1.954,1.9219,1.9241,1.9266,1.9295,1.9313,1.9335,1.9357,1.9372,1.9399,1.9431,1.9437,1.9471,1.9495,1.9536,1.9553,1.9579,1.9575,1.9584,1.9587,1.9589,1.959,1.9535,1.9584,1.9584,1.9584,1.9584,1.9584,0,1.9265,1.9281,1.9308,1.934,1.9363,1.9363,1.9389,1.9408,1.9437,1.946,1.9484,1.952,1.955,1.9571,1.9601,1.9618,1.962,1.9625,1.9625,1.9629,1.9592,1.9584,1.9623,1.9623,1.9623,1.9623,1.9623,1.9623,1.9292,1.9328,1.9337,1.9382,1.9398,1.9431,1.9446,1.9465,1.9483,1.9523,1.9548,1.9561,1.9583,1.9614,1.9642,1.9647,1.9658,1.9664,1.9669,1.9635,1.9631,1.9627,1.962,1.9666,1.9666,1.9704,1.9704,1.9705]}]]